Location: Unspecified
(0.0000°N, 0.0000°E)
Time: 00:55:35
(UTC+00:00)

Tiangong 2 - Pass Details

Date: 18 May 2019
Orbit: 378 x 386 km, 42.8° (Epoch: 16 July)

Event Time Altitude Azimuth Distance (km) Brightness Sun altitude
Rises 04:52:28 0° 347° (NNW) 2,235 5.0 -15.1°
Reaches altitude 10° 04:55:37 10° 22° (NNE) 1,390 4.5 -14.3°
Maximum altitude 04:56:49 12° 44° (NE) 1,297 4.8 -14.0°
Drops below altitude 10° 04:58:01 10° 67° (ENE) 1,395 5.4 -13.8°
Sets 05:01:10 0° 102° (ESE) 2,254 6.0 -13.0°
